WetterOnline ( https://www.wetteronline.de )

Wetter aktuell Malcesine

Aktuelles Wetter: Brescia-Ghedi (97m)

6-stündlich | Neueste Meldungen
Ortszeit Temperatur Wetter
Mo, 17.06. 14:00 26.2° C leicht bewölkt
Mo, 17.06. 8:00 19.7° C leicht bewölkt
Mo, 17.06. 2:00 18.7° C wolkenlos
So, 16.06. 20:00 25.6° C leicht bewölkt
So, 16.06. 14:00 24.2° C leicht bewölkt
So, 16.06. 8:00 19.0° C wolkig
So, 16.06. 2:00 18.4° C leicht bewölkt
Sa, 15.06. 20:00 23.1° C leicht bewölkt
Ortszeit Temperatur Wetter
Mo, 17.06. 18:00 27.0° C fast wolkenlos
Mo, 17.06. 17:00 27.2° C leicht bewölkt
Mo, 17.06. 16:00 27.0° C leicht bewölkt
Mo, 17.06. 15:00 26.6° C leicht bewölkt
Mo, 17.06. 14:00 26.2° C leicht bewölkt
Mo, 17.06. 13:00 25.8° C leicht bewölkt
Mo, 17.06. 12:00 25.0° C fast wolkenlos
Ortszeit Relative Feuchte Sichtweite
Mo, 17.06. 14:00 65% 10 km
Mo, 17.06. 8:00 91% 20 km
Mo, 17.06. 2:00 95% 20 km
So, 16.06. 20:00 58% 10 km
So, 16.06. 14:00 63% 10 km
So, 16.06. 8:00 92% 10 km
So, 16.06. 2:00 99% 10 km
Sa, 15.06. 20:00 72% 10 km
Ortszeit Relative Feuchte Sichtweite
Mo, 17.06. 18:00 62% 10 km
Mo, 17.06. 17:00 61% 10 km
Mo, 17.06. 16:00 63% 10 km
Mo, 17.06. 15:00 64% 10 km
Mo, 17.06. 14:00 65% 10 km
Mo, 17.06. 13:00 70% 10 km
Mo, 17.06. 12:00 73% 10 km
Ortszeit Niederschlagsmenge Niederschlagsart
Mo, 17.06. 14:00 0.0 l/m2 in 6 Std. -
Mo, 17.06. 8:00 0.0 l/m2 in 12 Std. -
Mo, 17.06. 2:00 0.0 l/m2 in 6 Std. -
So, 16.06. 20:00 0.0 l/m2 in 12 Std. -
So, 16.06. 14:00 0.0 l/m2 in 6 Std. -
So, 16.06. 8:00 0.0 l/m2 in 12 Std. -
So, 16.06. 2:00 0.0 l/m2 in 6 Std. -
Sa, 15.06. 20:00 0.0 l/m2 in 12 Std. -
Ortszeit Niederschlagsmenge Niederschlagsart
Mo, 17.06. 18:00 keine Meldung -
Mo, 17.06. 17:00 keine Meldung -
Mo, 17.06. 16:00 keine Meldung -
Mo, 17.06. 15:00 keine Meldung -
Mo, 17.06. 14:00 keine Meldung -
Mo, 17.06. 13:00 keine Meldung -
Mo, 17.06. 12:00 keine Meldung -
Ortszeit Stärke Spitze Richtung
km/h Bft. km/h Grad Sektor
Mo, 17.06. 14:00 6 1 - 100° O
Mo, 17.06. 8:00 2 1 - 20° N
Mo, 17.06. 2:00 2 1 - 90° O
So, 16.06. 20:00 7 2 - 300° NW
So, 16.06. 14:00 7 2 - 280° W
So, 16.06. 8:00 4 1 - 40° NO
So, 16.06. 2:00 4 1 - 320° NW
Sa, 15.06. 20:00 20 4 - 50° NO
Ortszeit Stärke Spitze Richtung
km/h Bft. km/h Grad Sektor
Mo, 17.06. 18:00 6 1 - 130° SO
Mo, 17.06. 17:00 7 2 - 190° S
Mo, 17.06. 16:00 6 1 - 190° S
Mo, 17.06. 15:00 6 1 - 210° SW
Mo, 17.06. 14:00 6 1 - 100° O
Mo, 17.06. 13:00 4 1 - 180° S
Mo, 17.06. 12:00 7 2 - 170° S
Ortszeit Untergrenze Bedeckung Gattung
total tief tief mittel hoch
Mo, 17.06. 14:00 750 m 4/8 4/8 Cu - -
Mo, 17.06. 8:00 6000 m 4/8 4/8 - - Ci
Mo, 17.06. 2:00 - 0/8 0/8 - - -
So, 16.06. 20:00 6000 m 3/8 3/8 - - Ci
So, 16.06. 14:00 1500 m 3/8 3/8 Cu Ac -
So, 16.06. 8:00 1500 m 6/8 3/8 Sc Ac -
So, 16.06. 2:00 2400 m 5/8 5/8 - Ac -
Sa, 15.06. 20:00 1500 m 6/8 2/8 Sc Ac -
Ortszeit Bedeckungsgrad in Achtel und Wolkenuntergrenze
Mo, 17.06. 18:00 1(900m)
Mo, 17.06. 17:00 3(750m)
Mo, 17.06. 16:00 1(750m) 3(1200m)
Mo, 17.06. 15:00 1(750m) 3(1200m)
Mo, 17.06. 14:00 1(750m) 3(1200m)
Mo, 17.06. 13:00 1(750m) 3(1200m)
Mo, 17.06. 12:00 1(750m)
Ortszeit Luftdruck NN (hPa) Tendenz (hPa in 3 Std.)
Mo, 17.06. 14:00 1016 + 0,3
Mo, 17.06. 8:00 1015 + 0,8
Mo, 17.06. 2:00 1013 + 1,2
So, 16.06. 20:00 1010 - 0,1
So, 16.06. 14:00 1011 + 0,2
So, 16.06. 8:00 1010 + 1,1
So, 16.06. 2:00 1009 + 0,5
Sa, 15.06. 20:00 1009 - 1,4
Ortszeit Luftdruck NN (hPa) Tendenz (hPa in 3 Std.)
Mo, 17.06. 18:00 1015 - 0,2
Mo, 17.06. 17:00 1015 - 0,6
Mo, 17.06. 16:00 1015 - 0,6
Mo, 17.06. 15:00 1015 - 0,1
Mo, 17.06. 14:00 1016 + 0,3
Mo, 17.06. 13:00 1016 + 0,6
Mo, 17.06. 12:00 1016 + 0,4
Ortszeit Schneehöhe (cm)
Mo, 17.06. 14:00 -
Mo, 17.06. 8:00 0
Mo, 17.06. 2:00 -
So, 16.06. 20:00 -
So, 16.06. 14:00 -
So, 16.06. 8:00 0
So, 16.06. 2:00 -
Sa, 15.06. 20:00 -
Ortszeit Schneehöhe (cm)
Mo, 17.06. 18:00 -
Mo, 17.06. 17:00 -
Mo, 17.06. 16:00 -
Mo, 17.06. 15:00 -
Mo, 17.06. 14:00 -
Mo, 17.06. 13:00 -
Mo, 17.06. 12:00 -
Link zu dieser Seite / Seite empfehlen

Das Wetter in ...